GW2027 Weather Reports


Display with metric or nautical units.
time (UTC)temp
F
wind
direction
speed
MPH
gust
MPH
rain 1hr
in
rain 24hr
in
rain mn
in
humidity
%
barometer
mb
20260504172953 74 193 0.0 1.0 0.00 0.00 0.00 21 1013.2
20260504172448 73 118 1.0 1.0 0.00 0.00 0.00 20 1013.2
20260504171945 73 233 1.0 2.0 0.00 0.00 0.00 21 1013.3
20260504171443 72 243 2.0 3.0 0.00 0.00 0.00 21 1013.4
20260504170939 72 245 7.0 9.0 0.00 0.00 0.00 21 1013.4
20260504170436 72 251 5.0 6.0 0.00 0.00 0.00 22 1013.1
20260504160355 70 246 2.0 3.0 0.00 0.00 0.00 24 1013.9
20260504150820 68 273 4.0 4.0 0.00 0.00 0.00 22 1014.5
20260504150316 68 257 4.0 4.0 0.00 0.00 0.00 23 1014.7
20260504141246 64 243 3.0 3.0 0.00 0.00 0.00 29 1015.2
20260504140742 63 222 0.0 0.0 0.00 0.00 0.00 32 1014.9
20260504140238 64 256 5.0 7.0 0.00 0.00 0.00 32 1015.0
20260504130707 58 251 4.0 4.0 0.00 0.00 0.00 38 1015.1
20260504130203 58 267 5.0 6.0 0.00 0.00 0.00 38 1015.1
20260504120127 54 247 2.0 3.0 0.00 0.00 0.00 43 1015.4
20260504110554 50 218 0.0 0.0 0.00 0.00 0.00 51 1015.7
20260504100516 50 200 0.0 0.0 0.00 0.00 0.00 51 1015.7
20260504081909 50 216 0.0 0.0 0.00 0.00 0.00 48 1016.1
20260504081406 50 219 0.0 0.0 0.00 0.00 0.00 47 1016.3
20260504080902 50 220 0.0 0.0 0.00 0.00 0.00 47 1016.2
20260504080359 50 220 0.0 1.0 0.00 0.00 0.00 46 1015.9
20260504070326 49 216 0.0 0.0 0.00 0.00 0.00 46 1016.3
20260504060247 48 216 0.0 0.0 0.00 0.00 0.00 47 1016.4
20260504050715 46 216 0.0 0.0 0.00 0.00 0.00 47 1016.3
20260504050212 46 216 0.0 0.0 0.00 0.00 0.00 47 1016.2
20260504045709 47 216 0.0 0.0 0.00 0.00 0.00 46 1016.4
20260504045209 47 216 0.0 0.0 0.00 0.00 0.00 46 1016.4
20260504044708 47 216 0.0 0.0 0.00 0.00 0.00 46 1016.4
20260504044204 47 216 0.0 0.0 0.00 0.00 0.00 47 1016.3
20260504043701 46 216 0.0 0.0 0.00 0.00 0.00 47 1016.3
20260504043158 46 216 0.0 0.0 0.00 0.00 0.00 47 1016.3
20260504042655 46 216 0.0 0.0 0.00 0.00 0.00 46 1016.3
20260504042152 46 216 0.0 0.0 0.00 0.00 0.00 46 1016.4
20260504041648 47 216 0.0 0.0 0.00 0.00 0.00 45 1016.3
20260504041144 47 216 0.0 0.0 0.00 0.00 0.00 45 1016.4
20260504040641 47 216 0.0 0.0 0.00 0.00 0.00 45 1016.4
20260504040138 48 216 0.0 0.0 0.00 0.00 0.00 44 1016.3
20260504035635 48 217 0.0 0.0 0.00 0.00 0.00 44 1016.2
20260504035131 48 217 0.0 0.0 0.00 0.00 0.00 43 1016.2
20260504034629 47 222 0.0 0.0 0.00 0.00 0.00 45 1016.2
20260504034126 47 213 0.0 0.0 0.00 0.00 0.00 46 1016.0
20260504033624 47 215 0.0 0.0 0.00 0.00 0.00 45 1016.0
20260504033121 47 215 0.0 0.0 0.00 0.00 0.00 46 1015.8
20260504032618 48 215 0.0 0.0 0.00 0.00 0.00 46 1015.8
20260504032115 48 216 0.0 0.0 0.00 0.00 0.00 46 1016.0
20260504031612 48 216 0.0 0.0 0.00 0.00 0.00 45 1015.8
20260504031108 48 216 0.0 0.0 0.00 0.00 0.00 45 1015.7
20260504030605 48 216 0.0 0.0 0.00 0.00 0.00 45 1015.7
20260504030101 48 215 0.0 0.0 0.00 0.00 0.00 45 1015.8
20260504025558 49 215 0.0 0.0 0.00 0.00 0.00 44 1015.8
20260504025055 49 215 0.0 0.0 0.00 0.00 0.00 43 1015.7
20260504024552 49 216 0.0 0.0 0.00 0.00 0.00 43 1015.7
20260504024049 49 216 0.0 0.0 0.00 0.00 0.00 42 1015.7
20260504023546 49 216 0.0 0.0 0.00 0.00 0.00 43 1015.7
20260504023042 49 216 0.0 0.0 0.00 0.00 0.00 42 1015.8
20260504022537 50 216 0.0 0.0 0.00 0.00 0.00 41 1015.9
20260504022034 50 216 0.0 0.0 0.00 0.00 0.00 40 1015.8
20260504021532 50 216 0.0 0.0 0.00 0.00 0.00 40 1015.8
20260504021028 50 217 0.0 0.0 0.00 0.00 0.00 40 1015.7
20260504020525 50 218 0.0 0.0 0.00 0.00 0.00 39 1015.7
20260504020022 50 218 0.0 0.0 0.00 0.00 0.00 39 1015.7
20260504015518 51 218 0.0 0.0 0.00 0.00 0.00 38 1015.5
20260504015014 51 218 0.0 0.0 0.00 0.00 0.00 38 1015.6
20260504014510 51 218 0.0 0.0 0.00 0.00 0.00 37 1015.6
20260504014008 51 218 0.0 0.0 0.00 0.00 0.00 36 1015.5
20260504013506 51 218 0.0 0.0 0.00 0.00 0.00 35 1015.7
20260504013001 51 218 0.0 0.0 0.00 0.00 0.00 35 1015.8
20260504012500 52 218 0.0 0.0 0.00 0.00 0.00 34 1015.5
20260504011957 52 218 0.0 0.0 0.00 0.00 0.00 33 1015.5
20260504011453 53 218 0.0 0.0 0.00 0.00 0.00 32 1015.5
20260504010949 53 218 0.0 0.0 0.00 0.00 0.00 32 1015.3
20260504010446 53 218 0.0 0.0 0.00 0.00 0.00 31 1015.4
20260504005942 54 218 0.0 0.0 0.00 0.00 0.00 30 1015.3
20260504005439 55 218 0.0 0.0 0.00 0.00 0.00 29 1015.5
20260504004936 55 218 0.0 0.0 0.00 0.00 0.00 29 1015.4
20260504004434 56 221 0.0 0.0 0.00 0.00 0.00 27 1015.3
20260504003930 56 221 0.0 0.0 0.00 0.00 0.00 27 1015.2
20260504003427 57 222 0.0 0.0 0.00 0.00 0.00 26 1015.1
20260504002924 58 223 0.0 0.0 0.00 0.00 0.00 26 1015.0
20260504002420 58 225 0.0 0.0 0.00 0.00 0.00 24 1015.1
20260504001918 59 232 1.0 1.0 0.00 0.00 0.00 23 1015.1
20260504001416 59 234 1.0 1.0 0.00 0.00 0.00 23 1014.9
20260504000912 59 239 2.0 2.0 0.00 0.00 0.00 23 1014.8
20260504000409 60 235 1.0 2.0 0.00 0.00 0.00 22 1014.7
20260503235906 60 236 1.0 1.0 0.00 0.00 0.00 22 1014.8
20260503235404 60 238 1.0 2.0 0.00 0.00 0.00 21 1014.8
20260503234901 60 257 4.0 4.0 0.00 0.00 0.00 21 1014.8
20260503234359 61 254 4.0 4.0 0.00 0.00 0.00 20 1014.6
20260503233856 61 228 2.0 3.0 0.00 0.00 0.00 20 1014.5
20260503233353 61 254 3.0 3.0 0.00 0.00 0.00 19 1014.4
20260503232849 61 236 2.0 2.0 0.00 0.00 0.00 20 1014.8
20260503232347 62 261 4.0 4.0 0.00 0.00 0.00 20 1014.5
20260503231844 62 246 3.0 3.0 0.00 0.00 0.00 19 1014.5
20260503231341 62 264 3.0 4.0 0.00 0.00 0.00 19 1014.2
20260503230837 62 275 5.0 6.0 0.00 0.00 0.00 18 1014.4
20260503230334 63 233 2.0 3.0 0.00 0.00 0.00 19 1014.5
20260503225832 63 244 3.0 3.0 0.00 0.00 0.00 18 1014.3
20260503225328 63 260 5.0 6.0 0.00 0.00 0.00 18 1014.6
20260503224824 63 265 4.0 4.0 0.00 0.00 0.00 17 1014.5
20260503224321 62 255 3.0 4.0 0.00 0.00 0.00 18 1014.6
20260503223819 62 257 3.0 3.0 0.00 0.00 0.00 18 1014.6
20260503223317 62 236 7.0 9.0 0.00 0.00 0.00 18 1014.4
20260503222812 62 253 6.0 8.0 0.00 0.00 0.00 17 1014.4
20260503222311 63 270 12.0 14.0 0.00 0.00 0.00 17 1014.5
20260503221809 63 268 7.0 8.0 0.00 0.00 0.00 17 1014.4
20260503221307 63 228 3.0 4.0 0.00 0.00 0.00 17 1014.6
20260503220802 63 254 6.0 7.0 0.00 0.00 0.00 17 1014.6
20260503220300 63 240 4.0 6.0 0.00 0.00 0.00 17 1014.6
20260503215756 63 270 7.0 9.0 0.00 0.00 0.00 17 1014.6
20260503215253 63 229 4.0 4.0 0.00 0.00 0.00 18 1014.7
20260503214751 63 299 3.0 4.0 0.00 0.00 0.00 17 1014.5
20260503214248 63 299 5.0 7.0 0.00 0.00 0.00 18 1014.8
20260503213746 63 301 6.0 8.0 0.00 0.00 0.00 17 1014.5
20260503213243 63 328 4.0 4.0 0.00 0.00 0.00 18 1014.5
20260503212740 62 273 5.0 6.0 0.00 0.00 0.00 18 1014.5
20260503212237 62 228 4.0 7.0 0.00 0.00 0.00 18 1014.6
20260503211735 62 263 5.0 6.0 0.00 0.00 0.00 18 1014.6
20260503211231 62 273 8.0 10.0 0.00 0.00 0.00 18 1014.5
20260503210726 61 280 4.0 6.0 0.00 0.00 0.00 19 1014.7
20260503210224 62 284 10.0 11.0 0.00 0.00 0.00 18 1014.7
20260503205719 62 247 7.0 9.0 0.00 0.00 0.00 19 1014.6
20260503205216 62 235 1.0 2.0 0.00 0.00 0.00 20 1014.6
20260503204712 62 266 4.0 4.0 0.00 0.00 0.00 21 1014.6
20260503204210 61 230 2.0 4.0 0.00 0.00 0.00 22 1014.6
20260503203707 61 261 3.0 4.0 0.00 0.00 0.00 20 1014.8
20260503203205 62 241 6.0 7.0 0.00 0.00 0.00 20 1014.8
20260503202702 61 224 2.0 2.0 0.00 0.00 0.00 20 1014.9
20260503202159 61 351 1.0 2.0 0.00 0.00 0.00 21 1014.9
20260503201657 60 269 8.0 10.0 0.00 0.00 0.00 21 1014.9
20260503201155 60 255 4.0 4.0 0.00 0.00 0.00 22 1015.0
20260503200650 60 256 4.0 4.0 0.00 0.00 0.00 21 1015.1
20260503200147 62 277 9.0 13.0 0.00 0.00 0.00 20 1015.1
20260503195644 61 266 4.0 7.0 0.00 0.00 0.00 20 1015.1
20260503195141 60 233 2.0 3.0 0.00 0.00 0.00 21 1015.3
20260503194638 60 277 7.0 9.0 0.00 0.00 0.00 22 1015.6
20260503194133 60 266 8.0 9.0 0.00 0.00 0.00 21 1015.4
20260503193631 60 257 9.0 10.0 0.00 0.00 0.00 21 1015.4
20260503193126 61 285 6.0 9.0 0.00 0.00 0.00 21 1015.7
20260503192622 60 256 6.0 8.0 0.00 0.00 0.00 21 1015.5
20260503192118 61 258 8.0 9.0 0.00 0.00 0.00 22 1015.6
20260503191615 60 287 5.0 7.0 0.00 0.00 0.00 22 1015.7
20260503191111 60 239 4.0 4.0 0.00 0.00 0.00 21 1015.8
20260503190609 60 272 7.0 9.0 0.00 0.00 0.00 22 1015.8
20260503190106 59 264 7.0 11.0 0.00 0.00 0.00 22 1015.7
20260503185602 59 242 4.0 6.0 0.00 0.00 0.00 24 1015.8
20260503185102 59 275 6.0 7.0 0.00 0.00 0.00 22 1016.0
20260503184557 58 290 4.0 6.0 0.00 0.00 0.00 24 1016.0
20260503184054 58 278 11.0 13.0 0.00 0.00 0.00 23 1016.2
20260503183551 59 289 5.0 8.0 0.00 0.00 0.00 22 1016.0
20260503183048 59 257 4.0 4.0 0.00 0.00 0.00 24 1016.2
20260503182547 57 321 2.0 3.0 0.00 0.00 0.00 24 1016.2
20260503182044 58 279 6.0 7.0 0.00 0.00 0.00 25 1016.1
20260503181541 57 262 2.0 3.0 0.00 0.00 0.00 25 1016.3
20260503181037 58 257 7.0 10.0 0.00 0.00 0.00 24 1016.4
20260503180535 57 319 10.0 13.0 0.00 0.00 0.00 23 1016.3
20260503180032 57 264 5.0 8.0 0.00 0.00 0.00 24 1016.3
20260503175529 58 323 6.0 7.0 0.00 0.00 0.00 23 1016.3
20260503175026 57 279 4.0 7.0 0.00 0.00 0.00 24 1016.5
20260503174524 58 314 6.0 10.0 0.00 0.00 0.00 23 1016.5
20260503174020 58 314 5.0 6.0 0.00 0.00 0.00 24 1016.5
20260503173515 57 283 4.0 7.0 0.00 0.00 0.00 24 1016.6